1293065433127,0.000139592
1293065493127,0.000140166
1293065553127,0.000139190
1293065613127,0.000139607
1293065673127,0.000138099
1293069033138,0.000139291
1293069093138,0.000139509
1293069153138,0.000138722
1293069213138,0.000138243
1293069273138,0.000139641
1293072633148,0.000140470
1293072693148,0.000139460
1293072753148,0.000138782
1293072813148,0.000139746
1293072873148,0.000140179
1293076233158,0.000139430
1293076293158,0.000140113
1293076353158,0.000139763
1293076413158,0.000139173
1293076473158,0.000139934
1293079833169,0.000138867
1293079893169,0.000139640
1293079953169,0.000139797
1293080013169,0.000139095
1293080073169,0.000138374
1293083433179,0.000138943
1293083493179,0.000139090
1293083553179,0.000138661
1293083613179,0.000139209
1293083673179,0.000139801
1293083733179,0.000139109
1293083793179,0.000139114
1293083853179,0.000139307
1293083913179,0.000139479
1293083973179,0.000139684
1293084033190,0.000139291
1293084093190,0.000139165
1293084153190,0.000138785
1293084213190,0.000138773
1293084273190,0.000139528
1293084333190,0.000140055
1293084393190,0.000139034
1293084453190,0.000139617
1293084513190,0.000139875
1293084573190,0.000139165
1293084633190,0.000139254
1293084693190,0.000140446
1293084753190,0.000140335
1293084813190,0.000139174
1293084873190,0.000139817
1293084933190,0.000138714
1293084993190,0.000139961
1293085053190,0.000139625
1293085113190,0.000139262
1293085173190,0.000139129
1293085233190,0.000138603
1293085293190,0.000140295
1293085353190,0.000139436
1293085413190,0.000139084
1293085473190,0.000138936
1293085533190,0.000139128
1293085593190,0.000139485
1293085653190,0.000139034
1293085713190,0.000138544
1293085773190,0.000138664
1293085833190,0.000138823
1293085893190,0.000138101
1293085953190,0.000138665
1293086013190,0.000139222
1293086073190,0.000139525
1293086133190,0.000139004
1293086193190,0.000139435
1293086253190,0.000138816
1293086313190,0.000138597
1293086373190,0.000138351
1293086433190,0.000140082
1293086493190,0.000138979
1293086553190,0.000138405
1293086613190,0.000138862
1293086673190,0.000137466
1293086733190,0.000138756
1293086793190,0.000138670
1293086853190,0.000139704
1293086913190,0.000138209
1293086973190,0.000138792
1293087033190,0.000139138
1293087093190,0.000139343
1293087153190,0.000138526
1293087213190,0.000139105
1293087273190,0.000138912
1293087333190,0.000138109
1293087393190,0.000138583
1293087453190,0.000139701
1293087513190,0.000139080
1293087573190,0.000139111
1293087633201,0.000139881
1293087693201,0.000139601
1293087753201,0.000139824
1293087813201,0.000139471
1293087873201,0.000139226
1293087933201,0.000139782
1293087993201,0.000139758
1293088053201,0.000139395
1293088113201,0.000139725
1293088173201,0.000141006
1293088233201,0.000140930
1293088293201,0.000140236
1293088353201,0.000139996
1293088413201,0.000139386
1293088473201,0.000139624
1293088533201,0.000139259
1293088593201,0.000139802
1293088653201,0.000138779
1293088713201,0.000138478
1293088773201,0.000139167
1293088833201,0.000140054
1293088893201,0.000139614
1293088953201,0.000139094
1293089013201,0.000138780
1293089073201,0.000138751
1293089133201,0.000137953
1293089193201,0.000138906
1293089253201,0.000139205
1293089313201,0.000138419
1293089373201,0.000138310
1293089433201,0.000138860
1293089493201,0.000139622
1293089553201,0.000138012
1293089613201,0.000139223
1293089673201,0.000138483
1293089733201,0.000138719
1293089793201,0.000139186
1293089853201,0.000139628
1293089913201,0.000140623
1293089973201,0.000139265
1293090033201,0.000139241
1293090093201,0.000138969
1293090153201,0.000138257
1293090213201,0.000138187
1293090273201,0.000138597
1293090333201,0.000138194
1293090393201,0.000138786
1293090453201,0.000139174
1293090513201,0.000138997
1293090573201,0.000138211
1293090633201,0.000138780
1293090693201,0.000138372
1293090753201,0.000137923
1293090813201,0.000137821
1293090873201,0.000139707
1293090933201,0.000138896
1293090993201,0.000138632
1293091053201,0.000138362
1293091113201,0.000139112
1293091173201,0.000138830
1293091233212,0.000138236
1293091293212,0.000138235
1293091353212,0.000138197
1293091413212,0.000139521
1293091473212,0.000138583
1293091533212,0.000138605
1293091593212,0.000139787
1293091653212,0.000137616
1293091713212,0.000137505
1293091773212,0.000139125
1293091833212,0.000137458
1293091893212,0.000138487
1293091953212,0.000138103
1293092013212,0.000138389
1293092073212,0.000138574
1293092133212,0.000138434
1293092193212,0.000139525
1293092253212,0.000139000
1293092313212,0.000139133
1293092373212,0.000139195
1293092433212,0.000138766
1293092493212,0.000139797
1293092553212,0.000139197
1293092613212,0.000138589
1293092673212,0.000138973
1293092733212,0.000138802
1293092793212,0.000138831
1293092853212,0.000139013
1293092913212,0.000139669
1293092973212,0.000139226
1293093033212,0.000139082
1293093093212,0.000140539
1293093153212,0.000139068
1293093213212,0.000138513
1293093273212,0.000140126
1293093333212,0.000138398
1293093393212,0.000139739
1293093453212,0.000139636
1293093513212,0.000138811
1293093573212,0.000139406
1293093633212,0.000139830
1293093693212,0.000137961
1293093753212,0.000139807
1293093813212,0.000139093
1293093873212,0.000139358
1293093933212,0.000137747
1293093993212,0.000137600
1293094053212,0.000139066
1293094113212,0.000138210
1293094173212,0.000138880
1293094233212,0.000138316
1293094293212,0.000138342
1293094353212,0.000138354
1293094413212,0.000138535
1293094473212,0.000139655
1293097833224,0.000139802
1293097893224,0.000139025
1293097953224,0.000139770
1293098013224,0.000138870
1293098073224,0.000139277
1293101433236,0.000139155
1293101493236,0.000139623
1293101553236,0.000139695
1293101613236,0.000138226
1293101673236,0.000138817
1293105033248,0.000137171
1293105093248,0.000139878
1293105153248,0.000139241
1293105213248,0.000138414
1293105273248,0.000140272
1293108633260,0.000138801
1293108693260,0.000137868
1293108753260,0.000139059
1293108813260,0.000138070
1293108873260,0.000138433
1293112233272,0.000138863
1293112293272,0.000138737
1293112353272,0.000138125
1293112413272,0.000138904
1293112473272,0.000137852
1293115833284,0.000140436
1293115893284,0.000139077
1293115953284,0.000139371
1293116013284,0.000139590
1293116073284,0.000138546
1293119433296,0.000139271
1293119493296,0.000139037
1293119553296,0.000139418
1293119613296,0.000139170
1293119673296,0.000139815
1293123033308,0.000139784
1293123093308,0.000140118
1293123153308,0.000139603
1293123213308,0.000140453
1293123273308,0.000140228
1293126633327,0.000140897
1293126693327,0.000140947
1293126753327,0.000140131
1293126813327,0.000140569
1293126873327,0.000141128
1293130233339,0.000139465
1293130293339,0.000140531
1293130353339,0.000140387
1293130413339,0.000141178
1293130473339,0.000140928
1293133833350,0.000141632
1293133893350,0.000142218
1293133953350,0.000140694
1293134013350,0.000141656
1293134073350,0.000142655
1293137433361,0.000141346
1293137493361,0.000141433
1293137553361,0.000141664
1293137613361,0.000140928
1293137673361,0.000141548
1293141033373,0.000142882
1293141093373,0.000141694
1293141153373,0.000142535
1293141213373,0.000141082
1293141273373,0.000142305
1293144633384,0.000140085
1293144693384,0.000143040
1293144753384,0.000140899
1293144813384,0.000140152
1293144873384,0.000139800
1293148233394,0.000141077
1293148293394,0.000140132
1293148353394,0.000140482
1293148413394,0.000141091
1293148473394,0.000140144
